User: anonymous   Login
Location: Unspecified
(0.0000°N, 0.0000°E)
Time: 09:29:14
(UTC+00:00)
Language:

OPAL - Orbit

View from above orbital plane
View from above orbital plane
View from above satellite
View from above satellite

Ground track
Ground track

The orbit data is extracted from the following two-line orbital elements,

1 26063U 00004C   21169.04403989 -.00000008  00000-0  17146-4 0  9999
2 26063 100.1903 102.3733 0036825 145.3109 215.0484 14.36791887121292
Epoch (UTC): 18 June 2021 01:03:25
Eccentricity: 0.0036825
inclination: 100.1903°
perigee height: 743 km
apogee height: 795 km
right ascension of ascending node: 102.3733°
argument of perigee: 145.3109°
revolutions per day: 14.36791887
mean anomaly at epoch: 215.0484°
orbit number at epoch: 12129

The dashed part of the orbit path shows where the satellite is in the earth's shadow,  

DLR